Regional Weather Roundup
Issued by NWS Little Rock, AR

Home | Current Version | Previous Version | Graphics & Text | Print | Product List | Glossary On
Versions: 1 2 3 4 5 6 7 8 9 10 11 12 13 14 15 16 17 18 19 20 21 22 23 24 25 26 27 28 29 30 31 32 33 34 35 36 37 38 39 40 41 42 43 44 45 46 47 48 49 50
000
ASUS44 KLZK 230305
RWRLZK

WEATHER ROUNDUP FOR ARKANSAS
NATIONAL WEATHER SERVICE LITTLE ROCK AR
900 PM CST SAT NOV 22 2014

NOTE: "FAIR" INDICATES FEW OR NO CLOUDS BELOW 12,000 FEET WITH NO
SIGNIFICANT WEATHER AND/OR OBSTRUCTIONS TO VISIBILITY.

ARZ001-003-010-029-230400-
NORTHWEST ARKANSAS

CITY           SKY/WX    TMP DP  RH WIND       PRES   REMARKS
FAYETTEVILLE   CLOUDY    52  52 100 CALM      29.86F
FORT SMITH     CLOUDY    53  51  93 E7        29.88F FOG
HARRISON       CLOUDY    51  51 100 SE8       29.91F
BENTONVILLE    CLOUDY    54  50  87 S12       29.85F
ROGERS         CLOUDY    54  52  93 S16       29.85F
SILOAM SPGS    CLOUDY    54  48  82 SE10      29.86F
HIGHFILL       CLOUDY    54 N/A N/A S15       29.84F
SPRINGDALE     CLOUDY    54  52  94 S7        29.88F
$$

ARZ004-005-016-230400-
NORTH CENTRAL ARKANSAS

CITY           SKY/WX    TMP DP  RH WIND       PRES   REMARKS
BATESVILLE     MOCLDY    54  46  76 SE5       29.95F
FLIPPIN        CLOUDY    50  46  87 CALM      29.92F VSB 1
MTN HOME       CLOUDY    51  50  96 SE3       29.91F
$$

ARZ040-041-230400-
WEST CENTRAL ARKANSAS

CITY           SKY/WX    TMP DP  RH WIND       PRES   REMARKS
MENA           CLOUDY    57  55  94 CALM      29.89F
MOUNT IDA      CLOUDY    54  52  93 CALM      29.89S FOG
$$

ARZ009-017-025-026-028-230400-
NORTHEAST ARKANSAS

CITY           SKY/WX    TMP DP  RH WIND       PRES   REMARKS
CORNING        FAIR      48  43  81 SE7       29.98F
JONESBORO      CLEAR     50  44  80 CALM      29.98F
NEWPORT        MOCLDY    53  47  80 SE10      29.97F
WALNUT RIDGE   PTCLDY    52  43  71 SE9       29.96F
BLYTHEVILLE    PTCLDY    63  41  44 S8        30.01F
$$

ARZ022-023-033-042-044-230400-
CENTRAL ARKANSAS

CITY           SKY/WX    TMP DP  RH WIND       PRES   REMARKS
LITTLE ROCK    CLOUDY    59  53  80 SE7       29.95F
N LITTLE ROCK  CLOUDY    58  55  90 SE8       29.95F
JACKSONVILLE   MOCLDY    55  52  87 E3        29.95F
SEARCY         PTCLDY    51  48  89 CALM      29.97F
HOT SPRINGS    CLOUDY    61  55  81 SE6       29.93F
RUSSELLVILLE   CLOUDY    53  52  96 CALM      29.91F FOG
CLINTON        FOG       48  48 100 CALM      29.97F VSB 1/4
$$

ARZ036-230400-
EAST ARKANSAS

CITY           SKY/WX    TMP DP  RH WIND       PRES   REMARKS
WEST MEMPHIS   PTCLDY    50  44  80 S6        29.99F
$$

ARZ050-053-066-070-073-230400-
SOUTHWEST ARKANSAS

CITY           SKY/WX    TMP DP  RH WIND       PRES   REMARKS
ARKADELPHIA    CLOUDY    62  58  87 CALM      29.92F
CAMDEN         MOCLDY    61  54  77 N5        29.92F
TEXARKANA      LGT RAIN  63  58  83 SE8       29.88F
EL DORADO      CLOUDY    63  56  78 E7        29.90F
DE QUEEN       CLOUDY    61  57  87 E7        29.85F
$$

ARZ056-057-069-230400-
SOUTHEAST ARKANSAS

CITY           SKY/WX    TMP DP  RH WIND       PRES   REMARKS
PINE BLUFF     CLOUDY    58  53  84 E7        29.96S
STUTTGART      MOCLDY    55  50  82 SE7       29.97S
MONTICELLO     MOCLDY    60  52  74 E5        29.94F

$$





USA.gov is the U.S. government's official web portal to all federal, state and local government web resources and services.